When you browse on this site, cookies collect data to enhance your experience and personalize the content and advertising you see.
Visit our Privacy Policy to learn more. By continuing to use the site, you agree to this use of cookies and data.
  • In Lithuania
  • List of Countries
  • For 7 days
  • Water Temperature
  • Satellite Maps
  • Weather Map
  • Weather Widgets
  • user-avatar
    Login

    Hourly Weather Rassekino

    Today, 20 March, Wednesday

    Time Temperature Precipitation Wind Pressure Humidity
    00:00 0°C° 0.1 mm 3 mps 753 mmHg 98%
    01:00 0°C° 0 mm 3 mps 753 mmHg 98%
    02:00 +1°C° 0 mm 2 mps 753 mmHg 98%
    03:00 +1°C° 0 mm 2 mps 752 mmHg 99%
    04:00 +1°C° 0.1 mm 2 mps 752 mmHg 99%
    05:00 +1°C° 0.1 mm 2 mps 752 mmHg 99%
    06:00 +1°C° 0.1 mm 2 mps 752 mmHg 99%
    07:00 +1°C° 0 mm 2 mps 752 mmHg 99%
    08:00 +1°C° 0 mm 2 mps 752 mmHg 99%
    09:00 +1°C° 0 mm 2 mps 753 mmHg 99%
    10:00 +1°C° 0 mm 2 mps 753 mmHg 99%
    11:00 +1°C° 0 mm 2 mps 753 mmHg 99%
    12:00 +1°C° 0 mm 2 mps 753 mmHg 99%
    13:00 +2°C° 0.1 mm 2 mps 753 mmHg 99%
    14:00 +2°C° 0.1 mm 2 mps 753 mmHg 99%
    15:00 +2°C° 0 mm 2 mps 753 mmHg 99%
    16:00 +2°C° 0.1 mm 2 mps 753 mmHg 99%
    17:00 +1°C° 0.1 mm 2 mps 753 mmHg 99%
    18:00 +1°C° 0.1 mm 2 mps 753 mmHg 99%
    19:00 0°C° 0 mm 3 mps 753 mmHg 98%
    20:00 -1°C° 0 mm 3 mps 753 mmHg 98%
    21:00 -1°C° 0 mm 3 mps 753 mmHg 97%
    22:00 -1°C° 0 mm 3 mps 753 mmHg 96%
    23:00 -2°C° 0 mm 3 mps 753 mmHg 95%

    Tomorrow, 21 March, Thursday

    Time Temperature Precipitation Wind Pressure Humidity
    00:00 -2°C° 0 mm 2 mps 753 mmHg 94%
    01:00 -2°C° 0 mm 2 mps 753 mmHg 93%
    02:00 -3°C° 0 mm 2 mps 752 mmHg 92%
    03:00 -3°C° 0 mm 2 mps 752 mmHg 91%
    04:00 -3°C° 0 mm 2 mps 752 mmHg 91%
    05:00 -3°C° 0 mm 2 mps 752 mmHg 91%
    06:00 -4°C° 0 mm 2 mps 752 mmHg 91%
    07:00 -3°C° 0 mm 2 mps 751 mmHg 90%
    08:00 -2°C° 0 mm 3 mps 751 mmHg 90%
    09:00 -2°C° 0 mm 3 mps 751 mmHg 89%
    10:00 -1°C° 0 mm 3 mps 751 mmHg 90%
    11:00 -1°C° 0 mm 3 mps 750 mmHg 92%
    12:00 0°C° 0 mm 3 mps 750 mmHg 93%
    13:00 0°C° 0 mm 3 mps 750 mmHg 94%
    14:00 0°C° 0 mm 3 mps 750 mmHg 94%
    15:00 0°C° 0 mm 3 mps 749 mmHg 94%
    16:00 +1°C° 0 mm 2 mps 749 mmHg 94%
    17:00 +1°C° 0 mm 2 mps 749 mmHg 94%
    18:00 -1°C° 0 mm 2 mps 749 mmHg 94%
    19:00 -1°C° 0 mm 2 mps 749 mmHg 94%
    20:00 -1°C° 0 mm 2 mps 749 mmHg 94%
    21:00 -1°C° 0 mm 2 mps 750 mmHg 95%
    22:00 -2°C° 0 mm 2 mps 750 mmHg 95%
    23:00 -2°C° 0 mm 2 mps 749 mmHg 95%

    Day after tomorrow, 22 March, Friday

    Time Temperature Precipitation Wind Pressure Humidity
    00:00 -2°C° 0 mm 2 mps 749 mmHg 95%
    01:00 -2°C° 0 mm 2 mps 749 mmHg 95%
    02:00 -2°C° 0 mm 2 mps 749 mmHg 95%
    03:00 -3°C° 0 mm 2 mps 749 mmHg 95%
    04:00 -3°C° 0 mm 2 mps 749 mmHg 94%
    05:00 -3°C° 0 mm 2 mps 749 mmHg 94%
    06:00 -3°C° 0 mm 2 mps 749 mmHg 93%
    07:00 -3°C° 0 mm 2 mps 748 mmHg 92%
    08:00 -2°C° 0 mm 3 mps 748 mmHg 90%
    09:00 -1°C° 0 mm 3 mps 747 mmHg 88%
    10:00 -2°C° 0 mm 4 mps 746 mmHg 89%
    11:00 -1°C° 0 mm 4 mps 745 mmHg 89%
    12:00 -1°C° 0 mm 5 mps 744 mmHg 89%
    13:00 -1°C° 0.9 mm 5 mps 743 mmHg 91%
    14:00 -1°C° 0.9 mm 6 mps 742 mmHg 92%
    15:00 -1°C° 0.9 mm 6 mps 741 mmHg 94%
    16:00 -1°C° 0.8 mm 7 mps 741 mmHg 91%
    17:00 -1°C° 0.8 mm 7 mps 741 mmHg 89%
    18:00 -1°C° 0.8 mm 8 mps 741 mmHg 86%
    19:00 -2°C° 0.1 mm 8 mps 741 mmHg 83%
    20:00 -2°C° 0.1 mm 8 mps 742 mmHg 80%
    21:00 -4°C° 0.1 mm 8 mps 742 mmHg 77%
    22:00 -4°C° 0 mm 7 mps 742 mmHg 79%
    23:00 -4°C° 0 mm 7 mps 742 mmHg 81%

    23 March, Saturday

    Time Temperature Precipitation Wind Pressure Humidity
    00:00 -6°C° 0 mm 7 mps 742 mmHg 83%
    01:00 -6°C° 0 mm 7 mps 742 mmHg 84%
    02:00 -6°C° 0 mm 7 mps 742 mmHg 84%
    03:00 -6°C° 0 mm 8 mps 742 mmHg 85%
    04:00 -6°C° 0.1 mm 8 mps 743 mmHg 86%
    05:00 -6°C° 0.1 mm 8 mps 743 mmHg 87%
    06:00 -6°C° 0.1 mm 8 mps 743 mmHg 88%
    07:00 -6°C° 0.2 mm 8 mps 744 mmHg 88%
    08:00 -6°C° 0.2 mm 8 mps 745 mmHg 89%
    09:00 -4°C° 0.2 mm 7 mps 745 mmHg 89%
    10:00 -4°C° 0 mm 7 mps 746 mmHg 90%
    11:00 -3°C° 0 mm 6 mps 746 mmHg 91%
    12:00 -2°C° 0 mm 6 mps 747 mmHg 92%
    13:00 -1°C° 0 mm 5 mps 747 mmHg 91%
    14:00 -1°C° 0 mm 5 mps 747 mmHg 90%
    15:00 -1°C° 0 mm 4 mps 748 mmHg 90%
    16:00 -1°C° 0 mm 4 mps 748 mmHg 89%
    17:00 -1°C° 0 mm 4 mps 748 mmHg 88%
    18:00 0°C° 0 mm 3 mps 748 mmHg 87%
    19:00 0°C° 0 mm 3 mps 749 mmHg 89%
    20:00 -1°C° 0 mm 3 mps 749 mmHg 90%
    21:00 -1°C° 0 mm 2 mps 749 mmHg 92%
    22:00 -1°C° 0 mm 2 mps 749 mmHg 92%
    23:00 -1°C° 0 mm 2 mps 749 mmHg 92%

    24 March, Sunday

    Time Temperature Precipitation Wind Pressure Humidity
    00:00 -1°C° 0 mm 2 mps 748 mmHg 93%
    01:00 -2°C° 0 mm 2 mps 748 mmHg 92%
    02:00 -2°C° 0 mm 2 mps 748 mmHg 92%
    03:00 -2°C° 0 mm 2 mps 747 mmHg 92%
    04:00 -2°C° 0 mm 2 mps 747 mmHg 91%
    05:00 -2°C° 0 mm 2 mps 747 mmHg 90%
    06:00 -2°C° 0 mm 3 mps 746 mmHg 89%
    07:00 -2°C° 0.1 mm 3 mps 746 mmHg 90%
    08:00 -2°C° 0.1 mm 4 mps 745 mmHg 90%
    09:00 -2°C° 0.1 mm 4 mps 745 mmHg 90%
    10:00 -2°C° 0.3 mm 4 mps 745 mmHg 92%
    11:00 -1°C° 0.3 mm 4 mps 744 mmHg 93%
    12:00 -1°C° 0.3 mm 4 mps 744 mmHg 95%
    13:00 0°C° 0.1 mm 4 mps 744 mmHg 93%
    14:00 0°C° 0.1 mm 4 mps 744 mmHg 92%
    15:00 +1°C° 0.1 mm 5 mps 744 mmHg 90%
    16:00 0°C° 0 mm 4 mps 744 mmHg 86%
    17:00 0°C° 0 mm 4 mps 744 mmHg 81%
    18:00 0°C° 0 mm 4 mps 744 mmHg 77%
    19:00 -1°C° 0 mm 4 mps 744 mmHg 78%
    20:00 -1°C° 0 mm 5 mps 745 mmHg 79%
    21:00 -2°C° 0 mm 5 mps 745 mmHg 80%
    22:00 -2°C° 0 mm 5 mps 745 mmHg 83%
    23:00 -2°C° 0 mm 5 mps 746 mmHg 85%

    25 March, Monday

    Time Temperature Precipitation Wind Pressure Humidity
    00:00 -3°C° 0 mm 6 mps 746 mmHg 87%
    01:00 -3°C° 0 mm 6 mps 746 mmHg 86%
    02:00 -4°C° 0 mm 6 mps 746 mmHg 85%
    03:00 -4°C° 0 mm 6 mps 747 mmHg 84%
    04:00 -4°C° 0 mm 5 mps 747 mmHg 83%
    05:00 -5°C° 0 mm 5 mps 747 mmHg 82%
    06:00 -6°C° 0 mm 5 mps 747 mmHg 81%
    07:00 -5°C° 0 mm 5 mps 747 mmHg 79%
    08:00 -5°C° 0 mm 5 mps 747 mmHg 77%
    09:00 -4°C° 0 mm 4 mps 748 mmHg 76%
    10:00 -3°C° 0 mm 4 mps 747 mmHg 72%
    11:00 -1°C° 0 mm 3 mps 747 mmHg 69%
    12:00 -1°C° 0 mm 3 mps 747 mmHg 65%
    13:00 0°C° 0 mm 3 mps 747 mmHg 62%
    14:00 +1°C° 0 mm 2 mps 747 mmHg 58%
    15:00 +2°C° 0 mm 2 mps 746 mmHg 54%
    16:00 +1°C° 0 mm 2 mps 746 mmHg 58%
    17:00 +1°C° 0 mm 2 mps 746 mmHg 62%
    18:00 -1°C° 0 mm 3 mps 745 mmHg 65%
    19:00 -1°C° 0 mm 3 mps 745 mmHg 66%
    20:00 -2°C° 0 mm 3 mps 745 mmHg 67%
    21:00 -3°C° 0 mm 4 mps 744 mmHg 68%
    22:00 -3°C° 0 mm 4 mps 744 mmHg 66%
    23:00 -4°C° 0 mm 5 mps 743 mmHg 64%
    Show more